{"data":{"norad_id":66706,"epoch":"2026-09-19T10:36:37.249056Z","epoch_age_seconds":109717,"freshness":"FRESH","line1":"1 66706U 25276AS  26262.44209779  .00004406  00000+0  20214-3 0  9992","line2":"2 66706  97.4164 334.6305 0004802  49.8385 310.3270 15.20939194 44741","mean_motion":15.20939194,"eccentricity":0.0004802,"inclination_deg":97.4164,"raan_deg":334.6305,"arg_perigee_deg":49.8385,"mean_anomaly_deg":310.327,"bstar":0.00020214,"rev_number":4474,"period_min":94.678341230254,"perigee_km":499.70205044279,"apogee_km":506.31070054061,"semimajor_km":6881.1433754917,"source":"CELESTRAK","updated_at":"2026-09-20T09:00:34.748105Z"}}